This is the latest recevied weather packets stored in our database for station/object K1BES. If no packets are shown the sender has not sent any weather packets the latest 10 day(s).
| Time | Temp. | Humidity | Pressure | Rain* | Wind** | Luminosity | Snow |
|---|---|---|---|---|---|---|---|
| 1787601710 | 33.33° C | 65% | 1018 hPa | 0 mm | - | 788 W/m² | - |
| 1787601406 | 33.89° C | 62% | 1018 hPa | 0 mm | - | 870 W/m² | - |
| 1787601105 | 33.89° C | 62% | 1017.9 hPa | 0 mm | - | 687 W/m² | - |
| 1787600799 | 33.89° C | 62% | 1018 hPa | 0 mm | - | 829 W/m² | - |
| 1787600495 | 33.89° C | 62% | 1018.3 hPa | 0 mm | - | 823 W/m² | - |
| 1787600190 | 33.89° C | 62% | 1018.1 hPa | 0 mm | - | 832 W/m² | - |
| 1787599887 | 33.33° C | 65% | 1018.1 hPa | 0 mm | - | 847 W/m² | - |
| 1787599583 | 33.89° C | 63% | 1018.3 hPa | 0 mm | - | 862 W/m² | - |
| 1787599280 | 34.44° C | 62% | 1018.2 hPa | 0 mm | - | 874 W/m² | - |
| 1787598979 | 33.89° C | 63% | 1018.3 hPa | 0 mm | - | 885 W/m² | - |
| 1787598675 | 33.89° C | 64% | 1018.6 hPa | 0 mm | - | 899 W/m² | - |
| 1787598375 | 33.89° C | 64% | 1018.6 hPa | 0 mm | - | 910 W/m² | - |
| 1787598072 | 33.89° C | 62% | 1018.6 hPa | 0 mm | - | 917 W/m² | - |
| 1787597767 | 33.33° C | 65% | 1018.6 hPa | 0 mm | - | 927 W/m² | - |
| 1787597466 | 33.33° C | 66% | 1018.7 hPa | 0 mm | - | 937 W/m² | - |
| 1787597165 | 33.33° C | 64% | 1018.6 hPa | 0 mm | - | 946 W/m² | - |
| 1787596861 | 33.89° C | 64% | 1018.3 hPa | 0 mm | - | 957 W/m² | - |
| 1787596557 | 33.89° C | 64% | 1018.9 hPa | 0 mm | - | 965 W/m² | - |
| 1787596252 | 33.89° C | 63% | 1018.9 hPa | 0 mm | - | 973 W/m² | - |
| 1787595949 | 33.89° C | 63% | 1018.8 hPa | 0 mm | - | 977 W/m² | - |
| 1787595643 | 33.33° C | 62% | 1018.9 hPa | 0 mm | - | 988 W/m² | - |
| 1787595339 | 33.33° C | 64% | 1018.9 hPa | 0 mm | - | 992 W/m² | - |
| 1787595038 | 33.33° C | 65% | 1019.2 hPa | 0 mm | - | 1003 W/m² | - |
| 1787594733 | 33.33° C | 67% | 1019.1 hPa | 0 mm | - | 1005 W/m² | - |
| 1787594433 | 33.33° C | 66% | 1019.1 hPa | 0 mm | - | 960 W/m² | - |
* Rain latest hour (hover to see other rain measurements)
** Current wind speed in m/s (hover to see current wind gust speed)